Showing default

OAO 1, 2142

Orbit data source: Space-Track

OAO 1, 2142 is a payload satellite owned by GSFC (US) in LEO that was launched on Fri, 08 Apr 1966 UTC via an ATLAS SLV-3 AGENA D launch vehicle from the Air Force Eastern Test Range (AFETR). Payloads include a variety of satellites, spacecraft, and rockets equipped with specific instruments for various scientific and technological missions. These include communications satellites like Starlink; space stations such as the ISS; scientific satellites like the Hubble; Earth observation satellites from companies like Planet Labs, Umbra, and HawkEye 360; GPS; miniature CubeSats for education and research; and military/defense satellites.

Loading next visibility...
OAO 1 details
Identifier
2142, 1966-031A
Orbit
LEO
Last TLE update7 hours ago
Origin
Flag of USGSFC (US)
ManufacturerGrummann
MissionCivil Astronomy
Bus & MotorOAO, Unknown motor
Mass1,769 kg wet, 1,769 kg dry
Launch date (UTC)
1966-04-08 (59 years ago)
Launch vehicle
ATLAS SLV-3 AGENA D
Launch site
Air Force Eastern Test Range (AFETR)
Object type
Payload
Rocket body
Debris
Shape & HBROct Cyl + 2 Pan, 6.5 m
Radar Cross Section9.480 m², Large (>1 m²)

Expand to show TLE details & history

TLE from 7 hours ago
0 OAO 1
1  2142U 66031A   25024.68529500  .00000420  00000-0  15397-3 0  9997
2  2142  35.0439 229.7064 0007633 268.2620  91.7193 14.34486568 78442
Epoch: 2025-01-24T16:26Z
Definitive object data (Epoch: 2025-01-24T16:26:49.488Z)
Latitude-0.00001°
Longitude-141.24473°
Altitude775.895 km
Speed7.468 km/s
True Right ascension15h 18m 49s
True Declination0° 00' 00"
Sunlit
Object was in daylight at TLE epoch
Visualization TLE readout
Latitude25.63931°
Longitude-5.80344°
Altitude780.054 km
Speed7.466 km/s
Apparent Right ascension22h 27m 28s
Apparent Declination-28° 01' 36"
Sunlit
Object is in daylight
Visualization observer readout
Local Sidereal Time01:02:02
Azimuth214.476° SW
Elevation13.138°
Doppler factor1
Orbital elements
Apogee altitude785.353 km
Perigee altitude774.426 km
Semi-major axis7,158.027 km
Eccentricity0.0007633
Inclination35.0439°
RAAN229.7064°
Arg. of periapsis268.262°
True anomaly91.80673°
Mean anomaly91.7193°
Eccentric anomaly91.76301°
Mean motion3.58388 °/min
BSTAR0.00015397
Orbital period100.45 mins
Loading maneuver chart data...
Loading historical data...
Loading historical data...
Loading historical data...
Loading historical data...
Loading historical data...
Loading historical data...
Loading historical data...
Other satellites on launch #31 in the year 1966 (1966-04-08 UTC)

OAO 1 Visibility forecast

Observer location: undefined°, undefined

Span
Click to sort rows by Start time (UTC) header in descending order
Start Az.
Max El. time (UTC)
Max El. Az.
Max El.
End time (UTC)
End Az.
5 mins2025-01-25 16:02:20.629Z173.292° S2025-01-25 16:04:20.629Z148.612° SSE15.321°2025-01-25 16:07:20.629Z114.635° SE
8 mins2025-01-25 17:46:20.629Z221.979° SW2025-01-25 17:49:20.629Z176.201° S31.106°2025-01-25 17:54:20.629Z100.059° ESE
8 mins2025-01-25 19:32:20.629Z247.543° W2025-01-25 19:35:20.629Z195.888° SSW37.619°2025-01-25 19:40:20.629Z107.746° ESE
8 mins2025-01-25 21:18:20.629Z252.085° W2025-01-25 21:21:20.629Z204.345° SW30.692°2025-01-25 21:26:20.629Z132.223° SE
4 mins2025-01-25 23:05:20.629Z232.956° WSW2025-01-25 23:07:20.629Z208.889° SW14.529°2025-01-25 23:09:20.629Z185.366° SSW
|